This is the latest recevied weather packets stored in our database for station/object W4DHW-4. If no packets are shown the sender has not sent any weather packets the latest 10 day(s).
| Time | Temp. | Humidity | Pressure | Rain* | Wind** | Luminosity | Snow |
|---|---|---|---|---|---|---|---|
| 1777386026 | 13.33° C | 86% | 1019.7 hPa | 0 mm | - | 493 W/m² | - |
| 1777385722 | 13.33° C | 87% | 1019.7 hPa | 0 mm | - | 377 W/m² | - |
| 1777385419 | 12.78° C | 89% | 1019.8 hPa | 0 mm | - | 406 W/m² | - |
| 1777385115 | 12.78° C | 90% | 1020.1 hPa | 0 mm | - | 215 W/m² | - |
| 1777384811 | 12.78° C | 91% | 1020.2 hPa | 0 mm | - | 198 W/m² | - |
| 1777384508 | 12.22° C | 91% | 1020.5 hPa | 0 mm | - | 164 W/m² | - |
| 1777384203 | 12.22° C | 90% | 1020.4 hPa | 0 mm | - | 86 W/m² | - |
| 1777383899 | 12.78° C | 90% | 1020.3 hPa | 0 mm | - | 178 W/m² | - |
| 1777383595 | 12.22° C | 90% | 1020 hPa | 0 mm | - | 204 W/m² | - |
| 1777383292 | 12.22° C | 91% | 1019.3 hPa | 0 mm | - | 173 W/m² | - |
| 1777382988 | 11.67° C | 91% | 1018.8 hPa | 0 mm | - | 134 W/m² | - |
| 1777382685 | 11.67° C | 93% | 1019.1 hPa | 0 mm | - | 112 W/m² | - |
| 1777382380 | 11.67° C | 93% | 1019 hPa | 0 mm | - | 103 W/m² | - |
| 1777382076 | 11.67° C | 94% | 1019.5 hPa | 0 mm | - | 122 W/m² | - |
| 1777381773 | 11.67° C | 95% | 1019.9 hPa | 0 mm | - | 138 W/m² | - |
| 1777381467 | 11.11° C | 96% | 1020.1 hPa | 0 mm | - | 122 W/m² | - |
| 1777381164 | 11.11° C | 96% | 1020.4 hPa | 0 mm | - | 95 W/m² | - |
| 1777380861 | 10.56° C | 96% | 1020.4 hPa | 0 mm | - | 76 W/m² | - |
| 1777380558 | 10.56° C | 97% | 1020.3 hPa | 0 mm | - | 75 W/m² | - |
| 1777380254 | 10.56° C | 97% | 1020.3 hPa | 0 mm | - | 75 W/m² | - |
| 1777379950 | 10.56° C | 97% | 1020.2 hPa | 0 mm | - | 69 W/m² | - |
| 1777379646 | 10.56° C | 97% | 1020.8 hPa | 0 mm | - | 53 W/m² | - |
| 1777379341 | 10.56° C | 97% | 1021.1 hPa | 0 mm | - | 49 W/m² | - |
| 1777379036 | 10.56° C | 97% | 1021.6 hPa | 0 mm | - | 46 W/m² | - |
| 1777378731 | 10.56° C | 97% | 1021.1 hPa | 0 mm | - | 59 W/m² | - |
* Rain latest hour (hover to see other rain measurements)
** Current wind speed in m/s (hover to see current wind gust speed)